Time,TemperatureF,DewpointF,PressureIn,WindDirection,WindDirectionDegrees,WindSpeedMPH,WindSpeedGustMPH,Humidity,HourlyPrecipIn,Conditions,Clouds,dailyrainin,SoftwareType,DateUTC
2013-04-13 00:00:00,50.5,47.0,30.04,SW,217,0.0,0.0,87,0.00,,,0.01,weatherlink.com 1.10,2013-04-13 05:00:00,
2013-04-13 00:15:00,50.1,46.0,30.03,SW,217,0.0,0.0,87,0.00,,,0.00,weatherlink.com 1.10,2013-04-13 05:15:00,
2013-04-13 00:30:00,49.8,46.0,30.03,SW,217,0.0,0.0,85,0.00,,,0.00,weatherlink.com 1.10,2013-04-13 05:30:00,
2013-04-13 00:45:00,49.7,46.0,30.03,SW,217,0.0,0.0,87,0.00,,,0.00,weatherlink.com 1.10,2013-04-13 05:45:00,
2013-04-13 01:01:00,49.3,46.0,30.03,SW,217,0.0,0.0,87,0.00,,,0.00,weatherlink.com 1.10,2013-04-13 06:01:00,
2013-04-13 01:16:00,48.8,45.0,30.04,SW,217,0.0,0.0,88,0.00,,,0.00,weatherlink.com 1.10,2013-04-13 06:16:00,
2013-04-13 01:31:00,47.9,45.0,30.05,SW,217,0.0,0.0,88,0.00,,,0.00,weatherlink.com 1.10,2013-04-13 06:31:00,
2013-04-13 02:01:00,47.7,45.0,30.05,SW,217,0.0,0.0,89,0.00,,,0.00,weatherlink.com 1.10,2013-04-13 07:01:00,
2013-04-13 02:16:00,47.4,45.0,30.04,SW,217,0.0,0.0,90,0.00,,,0.00,weatherlink.com 1.10,2013-04-13 07:16:00,
2013-04-13 02:31:00,47.5,44.0,30.04,SW,217,0.0,0.0,88,0.00,,,0.00,weatherlink.com 1.10,2013-04-13 07:31:00,
2013-04-13 02:46:00,47.2,43.0,30.04,SW,217,0.0,0.0,85,0.00,,,0.00,weatherlink.com 1.10,2013-04-13 07:46:00,
2013-04-13 03:01:00,47.5,43.0,30.04,SW,217,0.0,0.0,85,0.00,,,0.00,weatherlink.com 1.10,2013-04-13 08:01:00,
2013-04-13 03:46:00,47.1,42.0,30.05,ENE,68,0.0,2.0,83,0.00,,,0.00,weatherlink.com 1.10,2013-04-13 08:46:00,
2013-04-13 04:01:00,47.9,42.0,30.06,ENE,72,1.0,2.0,80,0.00,,,0.00,weatherlink.com 1.10,2013-04-13 09:01:00,
2013-04-13 04:15:00,48.0,42.0,30.06,NE,44,1.0,4.0,79,0.00,,,0.00,weatherlink.com 1.10,2013-04-13 09:15:00,
2013-04-13 04:31:00,47.5,41.0,30.07,NE,41,1.0,3.0,79,0.00,,,0.00,weatherlink.com 1.10,2013-04-13 09:31:00,
2013-04-13 04:46:00,46.9,41.0,30.07,NE,53,1.0,3.0,80,0.00,,,0.00,weatherlink.com 1.10,2013-04-13 09:46:00,
2013-04-13 05:16:00,46.1,40.0,30.07,ENE,64,1.0,3.0,80,0.00,,,0.00,weatherlink.com 1.10,2013-04-13 10:16:00,
2013-04-13 05:31:00,45.9,40.0,30.07,ENE,58,1.0,6.0,79,0.00,,,0.00,weatherlink.com 1.10,2013-04-13 10:31:00,
2013-04-13 05:46:00,45.6,40.0,30.07,ENE,57,1.0,4.0,80,0.00,,,0.00,weatherlink.com 1.10,2013-04-13 10:46:00,
2013-04-13 06:01:00,45.3,40.0,30.08,East,82,1.0,4.0,80,0.00,,,0.00,weatherlink.com 1.10,2013-04-13 11:01:00,
2013-04-13 06:16:00,44.9,39.0,30.08,NE,53,1.0,2.0,80,0.00,,,0.00,weatherlink.com 1.10,2013-04-13 11:16:00,
2013-04-13 06:46:00,44.5,39.0,30.10,ENE,64,0.0,4.0,81,0.00,,,0.00,weatherlink.com 1.10,2013-04-13 11:46:00,
2013-04-13 07:31:00,45.3,40.0,30.12,ENE,74,2.0,2.0,80,0.00,,,0.00,weatherlink.com 1.10,2013-04-13 12:31:00,
2013-04-13 07:47:00,46.1,40.0,30.13,ENE,71,0.0,3.0,80,0.00,,,0.00,weatherlink.com 1.10,2013-04-13 12:47:00,
2013-04-13 08:02:00,47.6,41.0,30.13,East,85,1.0,2.0,77,0.00,,,0.00,weatherlink.com 1.10,2013-04-13 13:02:00,
2013-04-13 08:17:00,48.3,41.0,30.14,ENE,58,0.0,2.0,76,0.00,,,0.00,weatherlink.com 1.10,2013-04-13 13:17:00,
2013-04-13 08:32:00,49.1,41.0,30.12,ENE,77,1.0,2.0,74,0.00,,,0.00,weatherlink.com 1.10,2013-04-13 13:32:00,
2013-04-13 08:47:00,50.0,42.0,30.13,ENE,74,2.0,3.0,73,0.00,,,0.00,weatherlink.com 1.10,2013-04-13 13:47:00,
2013-04-13 09:02:00,50.9,42.0,30.13,ENE,68,0.0,3.0,72,0.00,,,0.00,weatherlink.com 1.10,2013-04-13 14:02:00,
2013-04-13 09:17:00,53.1,43.0,30.13,ENE,68,0.0,1.0,69,0.00,,,0.00,weatherlink.com 1.10,2013-04-13 14:17:00,
2013-04-13 10:02:00,59.1,44.0,30.13,SE,134,0.0,2.0,57,0.00,,,0.00,weatherlink.com 1.10,2013-04-13 15:02:00,
2013-04-13 10:32:00,61.0,45.0,30.12,East,94,1.0,2.0,55,0.00,,,0.00,weatherlink.com 1.10,2013-04-13 15:32:00,
2013-04-13 10:47:00,61.5,43.0,30.12,ENE,71,0.0,3.0,51,0.00,,,0.00,weatherlink.com 1.10,2013-04-13 15:47:00,
2013-04-13 11:02:00,62.5,43.0,30.12,North,4,2.0,4.0,50,0.00,,,0.00,weatherlink.com 1.10,2013-04-13 16:02:00,
2013-04-13 11:32:00,64.1,43.0,30.11,ENE,72,1.0,4.0,46,0.00,,,0.00,weatherlink.com 1.10,2013-04-13 16:32:00,
2013-04-13 11:47:00,65.6,43.0,30.11,SW,220,1.0,2.0,44,0.00,,,0.00,weatherlink.com 1.10,2013-04-13 16:47:00,
2013-04-13 12:02:00,67.2,43.0,30.10,SW,218,0.0,2.0,42,0.00,,,0.00,weatherlink.com 1.10,2013-04-13 17:02:00,
2013-04-13 12:17:00,66.7,43.0,30.08,ENE,71,0.0,2.0,42,0.00,,,0.00,weatherlink.com 1.10,2013-04-13 17:17:00,
2013-04-13 12:32:00,67.5,42.0,30.08,SSE,160,0.0,2.0,40,0.00,,,0.00,weatherlink.com 1.10,2013-04-13 17:32:00,
2013-04-13 12:47:00,68.9,43.0,30.08,SW,214,1.0,3.0,39,0.00,,,0.00,weatherlink.com 1.10,2013-04-13 17:47:00,
2013-04-13 13:02:00,68.8,41.0,30.07,ENE,65,1.0,3.0,37,0.00,,,0.00,weatherlink.com 1.10,2013-04-13 18:02:00,
2013-04-13 13:17:00,70.6,46.0,30.06,ENE,68,2.0,4.0,41,0.00,,,0.00,weatherlink.com 1.10,2013-04-13 18:17:00,
2013-04-13 13:32:00,70.9,43.0,30.06,SSW,197,1.0,3.0,36,0.00,,,0.00,weatherlink.com 1.10,2013-04-13 18:32:00,
2013-04-13 13:48:00,72.6,45.0,30.06,West,278,1.0,3.0,37,0.00,,,0.00,weatherlink.com 1.10,2013-04-13 18:48:00,
2013-04-13 14:03:00,72.5,42.0,30.05,WSW,252,0.0,4.0,33,0.00,,,0.00,weatherlink.com 1.10,2013-04-13 19:03:00,
2013-04-13 14:18:00,72.9,40.0,30.04,SSW,204,0.0,2.0,31,0.00,,,0.00,weatherlink.com 1.10,2013-04-13 19:18:00,
2013-04-13 14:33:00,74.0,43.0,30.04,NE,49,0.0,4.0,33,0.00,,,0.00,weatherlink.com 1.10,2013-04-13 19:33:00,
2013-04-13 14:48:00,74.2,42.0,30.03,ENE,71,1.0,3.0,32,0.00,,,0.00,weatherlink.com 1.10,2013-04-13 19:48:00,
2013-04-13 15:03:00,75.6,43.0,30.02,SE,136,0.0,1.0,31,0.00,,,0.00,weatherlink.com 1.10,2013-04-13 20:03:00,
2013-04-13 15:33:00,77.1,43.0,30.02,SW,229,1.0,2.0,30,0.00,,,0.00,weatherlink.com 1.10,2013-04-13 20:33:00,
2013-04-13 15:48:00,76.9,42.0,30.01,West,279,0.0,3.0,29,0.00,,,0.00,weatherlink.com 1.10,2013-04-13 20:48:00,
2013-04-13 16:03:00,76.2,43.0,30.00,SW,215,1.0,4.0,30,0.00,,,0.00,weatherlink.com 1.10,2013-04-13 21:03:00,
2013-04-13 16:18:00,76.7,43.0,29.99,WNW,288,2.0,3.0,30,0.00,,,0.00,weatherlink.com 1.10,2013-04-13 21:18:00,
2013-04-13 16:33:00,77.2,43.0,29.99,West,262,0.0,1.0,30,0.00,,,0.00,weatherlink.com 1.10,2013-04-13 21:33:00,
2013-04-13 16:48:00,77.6,43.0,29.98,WSW,247,2.0,3.0,29,0.00,,,0.00,weatherlink.com 1.10,2013-04-13 21:48:00,
2013-04-13 17:03:00,76.5,42.0,29.98,SSW,198,0.0,2.0,29,0.00,,,0.00,weatherlink.com 1.10,2013-04-13 22:03:00,
2013-04-13 17:18:00,77.2,43.0,29.98,WSW,242,1.0,4.0,29,0.00,,,0.00,weatherlink.com 1.10,2013-04-13 22:18:00,
2013-04-13 17:33:00,77.1,42.0,29.97,SSW,210,1.0,2.0,28,0.00,,,0.00,weatherlink.com 1.10,2013-04-13 22:33:00,
2013-04-13 17:48:00,78.5,44.0,29.96,WSW,250,0.0,1.0,29,0.00,,,0.00,weatherlink.com 1.10,2013-04-13 22:48:00,
2013-04-13 18:03:00,79.5,44.0,29.96,SSW,197,0.0,0.0,28,0.00,,,0.00,weatherlink.com 1.10,2013-04-13 23:03:00,
2013-04-13 18:18:00,78.8,42.0,29.96,SSE,158,0.0,1.0,27,0.00,,,0.00,weatherlink.com 1.10,2013-04-13 23:18:00,
2013-04-13 18:33:00,78.0,43.0,29.96,South,187,0.0,0.0,29,0.00,,,0.00,weatherlink.com 1.10,2013-04-13 23:33:00,
2013-04-13 18:48:00,74.5,43.0,29.96,NE,36,0.0,2.0,33,0.00,,,0.00,weatherlink.com 1.10,2013-04-13 23:48:00,
2013-04-13 19:03:00,72.3,44.0,29.95,NE,36,0.0,0.0,36,0.00,,,0.00,weatherlink.com 1.10,2013-04-14 00:03:00,
2013-04-13 19:18:00,70.3,44.0,29.95,NE,36,0.0,1.0,39,0.00,,,0.00,weatherlink.com 1.10,2013-04-14 00:18:00,
2013-04-13 19:33:00,68.4,44.0,29.95,NE,36,0.0,1.0,41,0.00,,,0.00,weatherlink.com 1.10,2013-04-14 00:33:00,
2013-04-13 19:48:00,66.7,44.0,29.95,NE,36,0.0,0.0,44,0.00,,,0.00,weatherlink.com 1.10,2013-04-14 00:48:00,
2013-04-13 20:03:00,65.4,44.0,29.95,NE,36,0.0,0.0,47,0.00,,,0.00,weatherlink.com 1.10,2013-04-14 01:03:00,
2013-04-13 20:18:00,64.3,46.0,29.95,NE,36,0.0,0.0,52,0.00,,,0.00,weatherlink.com 1.10,2013-04-14 01:18:00,
2013-04-13 20:33:00,63.3,46.0,29.95,NE,36,0.0,0.0,53,0.00,,,0.00,weatherlink.com 1.10,2013-04-14 01:33:00,
2013-04-13 20:48:00,62.8,46.0,29.95,NE,36,0.0,1.0,55,0.00,,,0.00,weatherlink.com 1.10,2013-04-14 01:48:00,
2013-04-13 21:03:00,62.6,46.0,29.95,NE,36,0.0,0.0,54,0.00,,,0.00,weatherlink.com 1.10,2013-04-14 02:03:00,
2013-04-13 21:19:00,62.0,45.0,29.96,NE,35,0.0,0.0,55,0.00,,,0.00,weatherlink.com 1.10,2013-04-14 02:19:00,
2013-04-13 21:33:00,61.6,46.0,29.96,NE,36,0.0,0.0,57,0.00,,,0.00,weatherlink.com 1.10,2013-04-14 02:33:00,
2013-04-13 21:48:00,60.8,47.0,29.96,NE,35,0.0,1.0,60,0.00,,,0.00,weatherlink.com 1.10,2013-04-14 02:48:00,
2013-04-13 22:03:00,60.2,46.0,29.95,NE,36,0.0,0.0,60,0.00,,,0.00,weatherlink.com 1.10,2013-04-14 03:03:00,
2013-04-13 22:18:00,59.7,47.0,29.95,NE,36,0.0,0.0,63,0.00,,,0.00,weatherlink.com 1.10,2013-04-14 03:18:00,
2013-04-13 22:33:00,59.1,46.0,29.95,NE,35,0.0,0.0,63,0.00,,,0.00,weatherlink.com 1.10,2013-04-14 03:33:00,
2013-04-13 22:49:00,58.6,47.0,29.95,NE,36,0.0,1.0,66,0.00,,,0.00,weatherlink.com 1.10,2013-04-14 03:49:00,
2013-04-13 23:04:00,57.8,48.0,29.95,NE,35,0.0,0.0,69,0.00,,,0.00,weatherlink.com 1.10,2013-04-14 04:04:00,
2013-04-13 23:18:00,58.1,46.0,29.95,NE,36,0.0,1.0,64,0.00,,,0.00,weatherlink.com 1.10,2013-04-14 04:18:00,
2013-04-13 23:33:00,57.8,46.0,29.95,NE,36,0.0,0.0,66,0.00,,,0.00,weatherlink.com 1.10,2013-04-14 04:33:00,
2013-04-13 23:48:00,59.0,46.0,29.95,ESE,108,0.0,1.0,63,0.00,,,0.00,weatherlink.com 1.10,2013-04-14 04:48:00,